{"data":{"norad_id":65090,"intl_designator":"2025-167N","name":"STARLINK-34673","alt_names":[],"object_type":"PAYLOAD","status":"ACTIVE","operator":null,"country":"US","launch_date":"2025-08-04","launch_site_code":"AFETR","launch_vehicle":null,"mission":null,"orbit_class":"UNKNOWN","rcs_meters":null,"size_class":null,"mass_kg":null,"dimensions":null,"purposes":["comms"],"wikipedia_slug":null,"has_3d_model":false,"image_url":null,"decayed_at":null,"tle_current":{"epoch":"2026-05-24T22:59:11.391072Z","epoch_age_seconds":78779,"freshness":"FRESH","line1":"1 65090U 25167N   26144.95777073  .00020370  00000+0  69772-3 0  9998","line2":"2 65090  53.1609  32.6285 0001168  79.3677 280.7455 15.30212138 45159","mean_motion":15.30212138,"eccentricity":0.0001168,"inclination_deg":53.1609,"raan_deg":32.6285,"arg_perigee_deg":79.3677,"mean_anomaly_deg":280.7455,"bstar":0.00069772,"rev_number":4515,"period_min":94.104599240867,"perigee_km":474.37836049009,"apogee_km":475.97929506746,"semimajor_km":6853.3158277788,"source":"CELESTRAK","updated_at":"2026-05-25T13:38:20.684641Z"}}}